Ozona, TX

9:02 AM CDT on March 25, 2017 (GMT -0500)
Ozona Municipal

Weather History for KOZA - January, 2013

Change the Weather History Date:

Friday, January 11, 2013

  Actual Average Record
Temperature  
Mean Temperature 54 °F -  
Max Temperature 62 °F 54 °F 77 °F (2017)
Min Temperature 46 °F 27 °F 30 °F (2012)
Degree Days  
Heating Degree Days 11    
Growing Degree Days 4 (Base 50)    
Moisture  
Dew Point 46 °F    
Average Humidity 77    
Maximum Humidity 94    
Minimum Humidity 52    
Precipitation  
Precipitation 0.00 in - - ()
Sea Level Pressure  
Sea Level Pressure 29.89 in    
Wind  
Wind Speed 10 mph (South)    
Max Wind Speed 23 mph    
Max Gust Speed 26 mph    
Visibility 10 miles    
Events      
Averages and records for this station are not official NWS values.
T = Trace of Precipitation, MM = Missing Value Source: NWS Daily Summary

Daily Weather History Graph

Daily Weather History Graph

Search for Another Location

Airport or City:

Trip Planner

Search our weather history database for the weather conditions in past years. The results will help you decide how hot, cold, wet, or windy it might be!

Date:

Astronomy

Jan. 11, 2013 Rise Set
Actual Time 7:43 AM CST 6:02 PM CST
Civil Twilight 7:17 AM CST 6:28 PM CST
Nautical Twilight 6:47 AM CST 6:58 PM CST
Astronomical Twilight 6:18 AM CST 7:27 PM CST
Moon 7:20 AM CST (1/11) 6:18 PM CST (1/11)
Length of Visible Light 11h 11m
Length of Day
10h 19m
Waning Crescent, 0% of the Moon is Illuminated
Jan 11
Waning Crescent
Jan 11
New
Jan 18
First Quarter
Jan 26
Full
Feb 3
Last Quarter

Hourly Weather History & Observations

Time (CST) Temp. Windchill Dew Point Humidity Pressure Visibility Wind Dir Wind Speed Gust Speed Precip Events Conditions
12:15 AM 46.4 °F 41.9 °F 41.0 °F 81% 29.99 in 10.0 mi SSW 9.2 mph - N/A   Clear
12:35 AM 50.0 °F - 41.0 °F 71% 29.99 in 10.0 mi SSW 9.2 mph - N/A   Clear
12:55 AM 48.2 °F - 39.2 °F 71% 29.99 in 10.0 mi SSW 5.8 mph - N/A   Clear
1:15 AM 48.2 °F - 39.2 °F 71% 29.98 in 10.0 mi South 9.2 mph - N/A   Clear
1:35 AM 48.2 °F - 39.2 °F 71% 29.97 in 10.0 mi South 11.5 mph - N/A   Clear
1:55 AM 48.2 °F - 39.2 °F 71% 29.96 in 10.0 mi South 10.4 mph - N/A   Clear
2:15 AM 48.2 °F - 39.2 °F 71% 29.96 in 10.0 mi South 11.5 mph - N/A   Clear
2:35 AM 46.4 °F 40.7 °F 39.2 °F 76% 29.95 in 10.0 mi South 12.7 mph - N/A   Clear
2:55 AM 46.4 °F 41.1 °F 39.2 °F 76% 29.96 in 10.0 mi South 11.5 mph 18.4 mph N/A   Clear
3:15 AM 46.4 °F 41.5 °F 37.4 °F 71% 29.96 in 10.0 mi South 10.4 mph - N/A   Clear
3:35 AM 46.4 °F 41.1 °F 37.4 °F 71% 29.95 in 10.0 mi South 11.5 mph 16.1 mph N/A   Clear
3:55 AM 46.4 °F 40.4 °F 37.4 °F 71% 29.94 in 10.0 mi South 13.8 mph - N/A   Clear
4:15 AM 46.4 °F 41.5 °F 37.4 °F 71% 29.93 in 10.0 mi South 10.4 mph - N/A   Clear
4:35 AM 46.4 °F 41.1 °F 37.4 °F 71% 29.91 in 10.0 mi South 11.5 mph 17.3 mph N/A   Clear
4:55 AM 48.2 °F - 39.2 °F 71% 29.91 in 10.0 mi South 9.2 mph - N/A   Clear
5:15 AM 46.4 °F 41.5 °F 39.2 °F 76% 29.91 in 10.0 mi South 10.4 mph - N/A   Clear
5:35 AM 46.4 °F 42.9 °F 39.2 °F 76% 29.91 in 10.0 mi South 6.9 mph - N/A   Clear
6:35 AM 46.4 °F 42.4 °F 42.8 °F 87% 29.91 in 10.0 mi South 8.1 mph - N/A   Clear
6:55 AM 46.4 °F 43.5 °F 42.8 °F 87% 29.93 in 10.0 mi SSW 5.8 mph - N/A   Clear
7:15 AM 46.4 °F - 44.6 °F 93% 29.93 in 10.0 mi Calm Calm - N/A   Clear
7:35 AM 48.2 °F - 46.4 °F 93% 29.93 in 10.0 mi South 4.6 mph - N/A   Clear
7:55 AM 48.2 °F - 46.4 °F 93% 29.94 in 10.0 mi SSW 4.6 mph - N/A   Scattered Clouds
8:15 AM 48.2 °F - 46.4 °F 93% 29.95 in 7.0 mi SSW 9.2 mph - N/A   Mostly Cloudy
8:35 AM 48.2 °F - 46.4 °F 93% 29.95 in 7.0 mi South 11.5 mph - N/A   Scattered Clouds
8:55 AM 50.0 °F - 46.4 °F 87% 29.94 in 7.0 mi South 11.5 mph - N/A   Mostly Cloudy
9:15 AM 50.0 °F - 48.2 °F 94% 29.95 in 7.0 mi South 12.7 mph - N/A   Scattered Clouds
9:35 AM 51.8 °F - 48.2 °F 88% 29.94 in 10.0 mi South 12.7 mph - N/A   Clear
9:55 AM 51.8 °F - 48.2 °F 88% 29.94 in 10.0 mi South 16.1 mph 19.6 mph N/A   Clear
10:15 AM 53.6 °F - 48.2 °F 82% 29.93 in 10.0 mi South 15.0 mph 23.0 mph N/A   Clear
10:35 AM 53.6 °F - 46.4 °F 77% 29.93 in 10.0 mi SSW 6.9 mph - N/A   Clear
10:55 AM 53.6 °F - 46.4 °F 77% 29.93 in 10.0 mi South 10.4 mph - N/A   Clear
11:15 AM 57.2 °F - 46.4 °F 67% 29.92 in 10.0 mi South 13.8 mph - N/A   Clear
11:35 AM 59.0 °F - 48.2 °F 67% 29.91 in 10.0 mi South 20.7 mph 25.3 mph N/A   Clear
11:55 AM 59.0 °F - 48.2 °F 67% 29.89 in 10.0 mi South 12.7 mph 21.9 mph N/A   Clear
12:15 PM 60.8 °F - 48.2 °F 63% 29.88 in 10.0 mi South 19.6 mph - N/A   Clear
12:35 PM 60.8 °F - 46.4 °F 59% 29.87 in 10.0 mi South 21.9 mph 26.5 mph N/A   Clear
12:55 PM 62.6 °F - 46.4 °F 55% 29.85 in 10.0 mi South 23.0 mph - N/A   Clear
1:15 PM 62.6 °F - 46.4 °F 55% 29.84 in 10.0 mi South 18.4 mph 21.9 mph N/A   Clear
1:35 PM 62.6 °F - 44.6 °F 52% 29.84 in 10.0 mi SSW 17.3 mph - N/A   Clear
1:55 PM 60.8 °F - 46.4 °F 59% 29.83 in 10.0 mi South 16.1 mph - N/A   Clear
2:15 PM 60.8 °F - 46.4 °F 59% 29.82 in 10.0 mi South 10.4 mph - N/A   Clear
2:35 PM 60.8 °F - 46.4 °F 59% 29.82 in 10.0 mi SSW 11.5 mph - N/A   Clear
2:55 PM 59.0 °F - 46.4 °F 63% 29.82 in 10.0 mi South 11.5 mph - N/A   Clear
3:15 PM 59.0 °F - 46.4 °F 63% 29.83 in 10.0 mi South 9.2 mph 16.1 mph N/A   Clear
3:35 PM 59.0 °F - 46.4 °F 63% 29.82 in 10.0 mi South 10.4 mph - N/A   Clear
3:55 PM 59.0 °F - 46.4 °F 63% 29.81 in 10.0 mi South 9.2 mph - N/A   Clear
4:15 PM 57.2 °F - 46.4 °F 67% 29.82 in 10.0 mi South 8.1 mph - N/A   Clear
4:35 PM 57.2 °F - 46.4 °F 67% 29.81 in 10.0 mi South 10.4 mph - N/A   Clear
4:55 PM 57.2 °F - 46.4 °F 67% 29.81 in 10.0 mi SSW 10.4 mph - N/A   Clear
5:15 PM 57.2 °F - 46.4 °F 67% 29.81 in 10.0 mi SSW 10.4 mph - N/A   Clear
5:35 PM 55.4 °F - 48.2 °F 77% 29.81 in 10.0 mi SSW 11.5 mph 18.4 mph N/A   Clear
5:55 PM 55.4 °F - 48.2 °F 77% 29.82 in 10.0 mi SW 9.2 mph - N/A   Clear
6:15 PM 55.4 °F - 48.2 °F 77% 29.82 in 10.0 mi SSW 10.4 mph - N/A   Clear
6:35 PM 57.2 °F - 48.2 °F 72% 29.84 in 10.0 mi SW 10.4 mph 16.1 mph N/A   Clear
6:55 PM 55.4 °F - 48.2 °F 77% 29.84 in 10.0 mi SSW 6.9 mph - N/A   Clear
7:15 PM 55.4 °F - 50.0 °F 82% 29.84 in 10.0 mi SSW 5.8 mph - N/A   Clear
7:35 PM 55.4 °F - 50.0 °F 82% 29.84 in 10.0 mi SSW 5.8 mph - N/A   Clear
7:55 PM 55.4 °F - 50.0 °F 82% 29.84 in 10.0 mi Calm Calm - N/A   Clear
8:15 PM 53.6 °F - 50.0 °F 88% 29.85 in 10.0 mi Calm Calm - N/A   Clear
8:35 PM 53.6 °F - 50.0 °F 88% 29.84 in 10.0 mi South 8.1 mph - N/A   Clear
8:55 PM 55.4 °F - 50.0 °F 82% 29.85 in 10.0 mi Calm Calm - N/A   Clear
9:15 PM 53.6 °F - 50.0 °F 88% 29.85 in 10.0 mi Calm Calm - N/A   Clear
9:35 PM 53.6 °F - 50.0 °F 88% 29.84 in 10.0 mi Calm Calm - N/A   Clear
9:55 PM 53.6 °F - 50.0 °F 88% 29.84 in 10.0 mi Calm Calm - N/A   Clear
10:15 PM 53.6 °F - 51.8 °F 94% 29.84 in 10.0 mi South 4.6 mph - N/A   Clear
10:35 PM 53.6 °F - 51.8 °F 94% 29.85 in 10.0 mi South 3.5 mph - N/A   Scattered Clouds
10:55 PM 53.6 °F - 51.8 °F 94% 29.84 in 10.0 mi SSE 3.5 mph - N/A   Mostly Cloudy
11:15 PM 53.6 °F - 51.8 °F 94% 29.83 in 10.0 mi SSE 5.8 mph - N/A   Overcast
11:35 PM 55.4 °F - 53.6 °F 94% 29.82 in 10.0 mi SSE 6.9 mph - N/A   Overcast
11:55 PM 55.4 °F - 53.6 °F 94% 29.84 in 10.0 mi South 9.2 mph - N/A   Mostly Cloudy